Date String (YYYY-MM-DD hh:mm:ss) UTC,Instrument flags,Ambient pressure (hPa),Sample flow (lpm),Bypass flow (lpm),Sample temperature (°C),Ambient temperature (°C),ASC tube jacket temperature (°C),LED temperature (°C),Box temperature (°C),Sample RH (%),Span deviation,Mass concentration (μg/m³),Mass concentration (μg/m³),Mass concentration (μg/m³)
DateTimeUTC,F1_M11,P_M11,Q1_M11,Q2_M11,T1_M11,T2_M11,T3_M11,T4_M11,T5_M11,U1_M11,ZSPAN_M11,X0_M11,X2_M11,X1_M11
2022-02-16 14:00:00,,0815.8,5.01,0.00,22.5,21.8,00.0,31.4,24.3,14.0,0000.0,0008.26,0004.86,0004.35
2022-02-16 14:01:00,,0815.8,5.00,0.00,22.5,21.8,00.0,31.4,24.3,14.1,0000.0,0008.37,0004.89,0004.36
2022-02-16 14:02:00,,0815.8,4.99,0.00,22.5,21.8,00.0,31.4,24.3,14.1,0000.0,0008.33,0004.90,0004.36
2022-02-16 14:03:00,,0815.8,4.99,0.00,22.5,21.8,00.0,31.4,24.3,14.1,0000.0,0008.32,0004.90,0004.37
2022-02-16 14:04:00,,0815.8,5.00,0.00,22.5,21.8,00.0,31.4,24.3,14.1,0000.0,0008.34,0004.91,0004.37
2022-02-16 14:05:00,,0815.8,5.01,0.00,22.5,21.8,00.0,31.5,24.3,14.2,0000.0,0008.18,0004.89,0004.37
2022-02-16 14:06:00,,0815.8,5.00,0.00,22.5,21.8,00.0,31.5,24.3,14.2,0000.0,0008.05,0004.86,0004.37
2022-02-16 14:07:00,,0815.8,4.99,0.00,22.5,21.8,00.0,31.5,24.3,14.2,0000.0,0008.81,0004.84,0004.37
2022-02-16 14:08:00,,0815.9,5.02,0.00,22.5,21.8,00.0,31.5,24.3,14.2,0000.0,0009.20,0004.86,0004.36
2022-02-16 14:09:00,,0816.0,4.99,0.00,22.5,21.8,00.0,31.5,24.3,14.2,0000.0,0009.18,0004.86,0004.37
2022-02-16 14:10:00,,0815.9,5.00,0.00,22.5,21.8,00.0,31.5,24.3,14.2,0000.0,0009.27,0004.84,0004.38
2022-02-16 14:11:00,,0815.8,4.99,0.00,22.5,21.8,00.0,31.5,24.3,14.2,0000.0,0009.97,0004.83,0004.38
2022-02-16 14:12:00,,0815.8,5.00,0.00,22.5,21.8,00.0,31.5,24.3,14.3,0000.0,0009.93,0004.85,0004.39
2022-02-16 14:13:00,,0815.8,5.01,0.00,22.5,21.8,00.0,31.5,24.3,14.3,0000.0,0009.86,0004.84,0004.40
2022-02-16 14:14:00,,0815.8,5.00,0.00,22.5,21.7,00.0,31.5,24.3,14.3,0000.0,0009.99,0004.81,0004.39
2022-02-16 14:15:00,,0815.8,4.99,0.00,22.5,21.6,00.0,31.5,24.3,14.3,0000.0,0010.18,0004.80,0004.39
2022-02-16 14:16:00,,0815.8,5.01,0.00,22.5,21.6,00.0,31.5,24.3,14.3,0000.0,0010.72,0004.82,0004.39
2022-02-16 14:17:00,,0815.8,4.99,0.00,22.5,21.6,00.0,31.5,24.3,14.3,0000.0,0011.30,0004.83,0004.38
2022-02-16 14:18:00,,0815.8,5.02,0.00,22.5,21.5,00.0,31.4,24.2,14.4,0000.0,0010.50,0004.83,0004.38
2022-02-16 14:19:00,,0815.8,5.00,0.00,22.4,21.5,00.0,31.4,24.2,14.4,0000.0,0010.13,0004.83,0004.38
2022-02-16 14:20:00,,0815.7,4.99,0.00,22.4,21.5,00.0,31.4,24.2,14.4,0000.0,0010.01,0004.80,0004.38
2022-02-16 14:21:00,,0815.7,5.00,0.00,22.4,21.5,00.0,31.4,24.2,14.4,0000.0,0009.89,0004.79,0004.37
2022-02-16 14:22:00,,0815.7,5.02,0.00,22.4,21.4,00.0,31.4,24.2,14.5,0000.0,0009.30,0004.81,0004.37
2022-02-16 14:23:00,,0815.7,4.99,0.00,22.4,21.4,00.0,31.4,24.1,14.5,0000.0,0009.24,0004.81,0004.37
2022-02-16 14:24:00,,0815.7,5.00,0.00,22.4,21.5,00.0,31.4,24.1,14.6,0000.0,0009.29,0004.82,0004.35
2022-02-16 14:25:00,,0815.7,5.00,0.00,22.4,21.5,00.0,31.4,24.2,14.5,0000.0,0009.23,0004.86,0004.35
2022-02-16 14:26:00,,0815.8,5.01,0.00,22.4,21.5,00.0,31.4,24.2,14.6,0000.0,0009.28,0004.87,0004.35
2022-02-16 14:27:00,,0815.8,4.99,0.00,22.4,21.5,00.0,31.4,24.1,14.6,0000.0,0008.87,0004.87,0004.36
2022-02-16 14:28:00,,0815.8,5.01,0.00,22.4,21.6,00.0,31.4,24.2,14.6,0000.0,0008.20,0004.88,0004.38
2022-02-16 14:29:00,,0815.9,4.99,0.00,22.4,21.6,00.0,31.4,24.2,14.6,0000.0,0008.18,0004.87,0004.38
2022-02-16 14:30:00,,0815.9,4.99,0.00,22.4,21.6,00.0,31.4,24.2,14.6,0000.0,0008.11,0004.85,0004.38
2022-02-16 14:31:00,,0816.0,5.00,0.00,22.4,21.6,00.0,31.4,24.2,14.6,0000.0,0008.14,0004.86,0004.38
2022-02-16 14:32:00,,0816.0,5.01,0.00,22.4,21.6,00.0,31.4,24.2,14.5,0000.0,0008.17,0004.84,0004.37
2022-02-16 14:33:00,,0816.0,5.00,0.00,22.4,21.6,00.0,31.3,24.2,14.5,0000.0,0008.46,0004.81,0004.37
2022-02-16 14:34:00,,0815.9,5.00,0.00,22.4,21.6,00.0,31.4,24.2,14.5,0000.0,0008.73,0004.80,0004.36
2022-02-16 14:35:00,,0815.9,4.99,0.00,22.4,21.6,00.0,31.4,24.2,14.6,0000.0,0008.74,0004.80,0004.37
2022-02-16 14:36:00,,0816.0,4.99,0.00,22.4,21.6,00.0,31.4,24.2,14.6,0000.0,0009.02,0004.79,0004.38
2022-02-16 14:37:00,,0816.0,5.02,0.00,22.4,21.7,00.0,31.4,24.2,14.5,0000.0,0008.76,0004.79,0004.40
2022-02-16 14:38:00,,0816.0,4.99,0.00,22.4,21.7,00.0,31.4,24.2,14.5,0000.0,0008.66,0004.79,0004.40
2022-02-16 14:39:00,,0816.3,5.00,0.00,22.4,21.6,00.0,31.4,24.2,14.5,0000.0,0008.74,0004.81,0004.40
2022-02-16 14:40:00,,0816.2,4.99,0.00,22.4,21.6,00.0,31.4,24.2,14.4,0000.0,0009.20,0004.83,0004.40
2022-02-16 14:41:00,,0816.3,5.01,0.00,22.4,21.6,00.0,31.4,24.2,14.4,0000.0,0009.96,0004.85,0004.40
2022-02-16 14:42:00,,0816.1,5.01,0.00,22.4,21.6,00.0,31.4,24.2,14.5,0000.0,0010.85,0004.85,0004.41
2022-02-16 14:43:00,,0816.1,4.99,0.00,22.4,21.6,00.0,31.4,24.2,14.5,0000.0,0010.83,0004.88,0004.42
2022-02-16 14:44:00,,0816.1,5.00,0.00,22.4,21.6,00.0,31.4,24.2,14.5,0000.0,0010.84,0004.92,0004.43
2022-02-16 14:45:00,,0816.3,5.01,0.00,22.4,21.6,00.0,31.4,24.2,14.4,0000.0,0011.28,0004.93,0004.44
2022-02-16 14:46:00,,0816.3,4.99,0.00,22.4,21.6,00.0,31.4,24.2,14.4,0000.0,0011.27,0004.94,0004.46
2022-02-16 14:47:00,,0816.4,4.99,0.00,22.4,21.6,00.0,31.4,24.2,14.4,0000.0,0011.74,0004.96,0004.47
2022-02-16 14:48:00,,0816.1,5.01,0.00,22.4,21.6,00.0,31.4,24.2,14.4,0000.0,0012.07,0004.97,0004.48
2022-02-16 14:49:00,,0816.0,4.99,0.00,22.4,21.6,00.0,31.4,24.2,14.3,0000.0,0012.11,0004.98,0004.49
2022-02-16 14:50:00,,0816.0,4.99,0.00,22.4,21.6,00.0,31.4,24.2,14.3,0000.0,0012.28,0005.02,0004.51
2022-02-16 14:51:00,,0816.0,5.02,0.00,22.4,21.6,00.0,31.4,24.2,14.3,0000.0,0012.97,0005.01,0004.52
2022-02-16 14:52:00,,0816.0,5.00,0.00,22.4,21.6,00.0,31.4,24.2,14.3,0000.0,0012.41,0005.02,0004.52
2022-02-16 14:53:00,,0816.0,4.99,0.00,22.4,21.6,00.0,31.4,24.2,14.4,0000.0,0011.37,0005.05,0004.53
2022-02-16 14:54:00,,0816.6,5.00,0.00,22.4,21.6,00.0,31.4,24.2,14.3,0000.0,0011.56,0005.05,0004.54
2022-02-16 14:55:00,,0816.1,5.01,0.00,22.4,21.6,00.0,31.3,24.2,14.3,0000.0,0011.58,0005.04,0004.54
2022-02-16 14:56:00,,0816.1,5.00,0.00,22.4,21.6,00.0,31.3,24.2,14.4,0000.0,0010.87,0005.03,0004.55
2022-02-16 14:57:00,,0816.1,4.99,0.00,22.4,21.6,00.0,31.4,24.2,14.3,0000.0,0011.51,0005.06,0004.55
2022-02-16 14:58:00,,0816.1,5.01,0.00,22.4,21.6,00.0,31.4,24.2,14.3,0000.0,0011.03,0005.05,0004.55
2022-02-16 14:59:00,,0816.4,5.00,0.00,22.4,21.6,00.0,31.3,24.2,14.4,0000.0,0010.44,0005.07,0004.56
